San Bernardino, CA

12:57 PM PST on December 10, 2019 (GMT -0800)
San Bernardino International

Weather History for KSBD - May, 2019

Change the Weather History Date:

Monday, May 27, 2019

  Actual Average Record
Temperature  
Mean Temperature 59 °F -  
Max Temperature 68 °F 79 °F 93 °F (2014)
Min Temperature 50 °F 54 °F 48 °F (2012)
Degree Days  
Heating Degree Days 6    
Growing Degree Days 9 (Base 50)    
Moisture  
Dew Point 43 °F    
Average Humidity 65    
Maximum Humidity 84    
Minimum Humidity 33    
Precipitation  
Precipitation 0.00 in - - ()
Sea Level Pressure  
Sea Level Pressure 29.99 in    
Wind  
Wind Speed 3 mph (WSW)    
Max Wind Speed 12 mph    
Max Gust Speed -    
Visibility 9 miles    
Events Rain    
Averages and records for this station are not official NWS values.
T = Trace of Precipitation, MM = Missing Value Source: NWS Daily Summary

Daily Weather History Graph

Daily Weather History Graph

Search for Another Location

Airport or City:

Astronomy

May. 27, 2019 Rise Set
Actual Time 5:40 AM PDT 7:52 PM PDT
Civil Twilight 5:11 AM PDT 8:20 PM PDT
Nautical Twilight 4:37 AM PDT 8:55 PM PDT
Astronomical Twilight 3:59 AM PDT 9:33 PM PDT
Moon 2:03 AM PDT (5/27) 1:30 PM PDT (5/27)
Length of Visible Light 15h 08m
Length of Day
14h 11m
Last Quarter, 40% of the Moon is Illuminated
May 27
Last Quarter
Jun 3
New
Jun 9
First Quarter
Jun 17
Full
Jun 25
Last Quarter

Hourly Weather History & Observations

Time (PDT) Temp. Dew Point Humidity Pressure Visibility Wind Dir Wind Speed Gust Speed Precip Events Conditions
12:00 AM 53.1 °F 47.5 °F 81% 29.97 in 10.0 mi SSW 5.8 mph - N/A   Overcast
12:20 AM 53.1 °F 47.3 °F 81% 29.97 in 10.0 mi SW 5.8 mph - 0.01 in Rain Rain
12:40 AM 52.2 °F 46.8 °F 82% 29.97 in 5.0 mi WSW 4.6 mph - 0.07 in Rain Heavy Rain
1:00 AM 51.8 °F 46.4 °F 82% 29.97 in 10.0 mi Calm Calm - N/A Rain Light Rain
1:01 AM 51.8 °F 46.4 °F 82% 29.97 in 10.0 mi Calm Calm - N/A Rain Light Rain
1:20 AM 52.2 °F 46.8 °F 82% 29.97 in 10.0 mi Calm Calm - N/A   Light Drizzle
1:40 AM 52.2 °F 47.3 °F 83% 29.97 in 10.0 mi Calm Calm - N/A   Overcast
2:00 AM 52.2 °F 47.3 °F 83% 29.97 in 10.0 mi Calm Calm - N/A   Overcast
2:01 AM 52.3 °F 47.5 °F 84% 29.97 in 10.0 mi Calm Calm - N/A   Overcast
2:20 AM 52.2 °F 47.3 °F 83% 29.97 in 10.0 mi NW 4.6 mph - N/A   Overcast
2:40 AM 51.6 °F 46.2 °F 82% 29.97 in 10.0 mi NW 5.8 mph - N/A   Overcast
3:00 AM 51.3 °F 45.9 °F 82% 29.96 in 10.0 mi Calm Calm - N/A   Mostly Cloudy
3:20 AM 51.4 °F 46.0 °F 82% 29.96 in 10.0 mi Calm Calm - N/A   Mostly Cloudy
3:40 AM 51.6 °F 46.0 °F 81% 29.97 in 10.0 mi Calm Calm - N/A   Overcast
4:00 AM 51.4 °F 45.9 °F 81% 29.96 in 10.0 mi Calm Calm - N/A   Overcast
4:20 AM 50.9 °F 45.5 °F 82% 29.96 in 10.0 mi Calm Calm - N/A   Mostly Cloudy
4:40 AM 50.9 °F 45.5 °F 82% 29.97 in 10.0 mi WSW 4.6 mph - N/A   Mostly Cloudy
5:00 AM 50.9 °F 45.9 °F 83% 29.97 in 10.0 mi Calm Calm - N/A   Overcast
5:20 AM 50.5 °F 45.3 °F 82% 29.98 in 10.0 mi WSW 3.5 mph - N/A   Mostly Cloudy
5:40 AM 50.9 °F 46.0 °F 83% 29.99 in 10.0 mi WSW 4.6 mph - N/A   Mostly Cloudy
7:00 AM 50.0 °F 44.6 °F 82% 30.00 in 7.0 mi Calm Calm - N/A   Mostly Cloudy
7:48 AM 53.6 °F 44.6 °F 72% 30.01 in 7.0 mi Calm Calm - N/A   Scattered Clouds
8:45 AM 55.4 °F 44.6 °F 67% 30.03 in 7.0 mi Calm Calm - N/A   Scattered Clouds
9:46 AM 57.2 °F 41.0 °F 55% 30.04 in 7.0 mi Calm Calm - N/A   Mostly Cloudy
10:50 AM 59.0 °F 39.2 °F 48% 30.04 in 7.0 mi Calm Calm - N/A   Mostly Cloudy
11:50 AM 64.4 °F 37.4 °F 37% 30.03 in 7.0 mi WSW 4.6 mph - N/A   Mostly Cloudy
12:50 PM 64.4 °F 37.4 °F 37% 30.03 in 7.0 mi SSW 8.1 mph - N/A   Mostly Cloudy
1:50 PM 66.2 °F 37.4 °F 35% 30.00 in 7.0 mi West 5.8 mph - N/A   Mostly Cloudy
2:50 PM 68.0 °F 37.4 °F 33% 30.00 in 7.0 mi West 8.1 mph - N/A   Mostly Cloudy
4:50 PM 68.0 °F 39.2 °F 35% 29.99 in 7.0 mi WSW 10.4 mph - N/A   Mostly Cloudy
5:50 PM 66.2 °F 41.0 °F 40% 29.98 in 7.0 mi West 9.2 mph - N/A   Mostly Cloudy
6:50 PM 64.4 °F 41.0 °F 42% 29.98 in 7.0 mi WSW 11.5 mph - N/A   Scattered Clouds
7:50 PM 62.6 °F 41.0 °F 45% 29.99 in 7.0 mi West 8.1 mph - N/A   Partly Cloudy
8:50 PM 59.0 °F 41.0 °F 51% 29.99 in 7.0 mi WSW 6.9 mph - N/A   Clear
9:40 PM 58.1 °F 41.2 °F 53% 29.99 in 10.0 mi WSW 5.8 mph - N/A   Clear
9:41 PM 58.1 °F 41.2 °F 53% 29.99 in 10.0 mi West 5.8 mph - N/A   Clear
10:00 PM 56.7 °F 41.0 °F 56% 30.00 in 10.0 mi WSW 6.9 mph - N/A   Clear
10:20 PM 56.3 °F 41.0 °F 57% 30.00 in 10.0 mi WSW 3.5 mph - N/A   Clear
10:40 PM 57.2 °F 41.0 °F 55% 30.00 in 10.0 mi SW 3.5 mph - N/A   Clear
10:41 PM 57.2 °F 41.0 °F 55% 30.00 in 10.0 mi SW 3.5 mph - N/A   Clear
11:00 PM 56.8 °F 40.6 °F 55% 29.99 in 10.0 mi WSW 4.6 mph - N/A   Clear
11:20 PM 56.8 °F 41.2 °F 56% 29.99 in 10.0 mi Calm Calm - N/A   Clear
11:40 PM 56.7 °F 41.0 °F 56% 29.99 in 10.0 mi Calm Calm - N/A   Clear
11:41 PM 56.7 °F 41.0 °F 56% 29.99 in 10.0 mi Calm Calm - N/A   Clear